Location: Blue Sky Observatory
(43.1153°N, 70.9036°W)
Time: 23:35:13
(UTC-05:00)

Daily predictions for brighter satellites

Satellite Brightness Start Highest point End
(mag) Time Altitude Azimuth Time Altitude Azimuth Time Altitude Azimuth
Cosmos 1386 Rocket 4.4 17:46:40 10° S 17:52:42 68° E 17:58:42 10° NNE
Cosmos 2322 4.3 17:47:34 10° N 17:52:53 38° ENE 17:58:09 10° SE
Cosmos 1238 Rocket 3.4 17:55:23 10° NNE 17:57:43 21° ENE 18:00:02 10° SE
deb Kosmos-1763 4.3 17:54:21 10° SSW 17:58:09 81° WNW 18:01:58 10° NNE
NOAA 12 4.2 17:53:46 10° SSE 17:58:58 58° ENE 18:04:13 10° N
Cosmos 1975 Rocket 4.4 17:58:55 10° NNW 18:03:02 44° W 18:07:07 10° SSW
SKYMED 2 3.9 18:02:22 10° N 18:06:43 74° WNW 18:11:02 10° SSW
COSMOS 2428 3.6 18:03:08 10° N 18:07:59 28° NE 18:12:49 10° ESE
METEOR-M 4.1 18:04:20 10° SSE 18:09:38 71° ENE 18:14:58 10° N
Meteor 2-4 Rocket 4.3 18:06:22 10° N 18:11:19 32° ENE 18:16:08 10° SE
Cosmos 2237 Rocket 4.1 18:09:12 10° NNE 18:11:35 12° NE 18:13:56 10° ENE
Cosmos 1536 3.9 18:12:31 10° SE 18:15:44 24° E 18:18:58 10° NE
H-2A R/B 3.8 18:13:20 10° ESE 18:16:19 23° ENE 18:19:20 10° NNE
Okean 1 3.5 18:15:15 10° N 18:19:20 78° W 18:23:23 10° S
Cosmos 1812 4.0 18:16:22 10° NNW 18:20:05 45° W 18:23:45 10° SSW
Cosmos 1633 2.7 18:17:54 10° S 18:21:30 53° E 18:25:06 10° NNE
Cosmos 1536 Rocket 3.6 18:17:33 10° N 18:22:03 89° E 18:26:32 10° S
Cosmos 1818 3.8 18:20:45 10° SW 18:26:12 77° NW 18:31:41 10° NNE
Cosmos 407 Rocket 4.1 18:22:17 10° SSW 18:27:29 62° WNW 18:32:46 10° NNE
Cosmos 2360 Rocket 2.1 18:22:05 10° NNW 18:27:45 76° ENE 18:33:25 10° SSE
Cosmos 2219 Rocket 3.3 18:24:46 10° N 18:29:14 24° NE 18:31:48 17° E
Cosmos 2219 3.9 18:25:06 10° SSE 18:30:08 32° ESE 18:35:10 10° NE
Cosmos 676 Rocket 4.1 18:26:48 10° SSW 18:31:59 80° WNW 18:37:15 10° NNE
Cosmos 1570 Rocket 4.2 18:32:42 10° N 18:37:49 51° ENE 18:42:54 10° SE
Meteor 1-11 Rocket 3.7 18:33:38 10° S 18:39:23 69° E 18:45:16 10° NNE
SL-16 R/B 4.2 18:43:50 10° NNE 18:44:48 10° NE 18:45:26 10° NE
Cosmos 1140 Rocket 3.4 18:41:55 10° SSW 18:47:03 86° ESE 18:52:15 10° NNE
Resurs 01 Rocket 1.5 18:45:14 10° SSE 18:49:37 70° ENE 18:54:00 10° N
Cosmos 1602 4.0 18:46:03 10° SSW 18:49:55 71° W 18:53:50 10° N
Cosmos 1300 Rocket 3.7 18:47:02 10° SSW 18:51:26 78° W 18:55:54 10° N
Cosmos 614 Rocket 3.8 18:49:51 10° SSW 18:54:55 77° ESE 19:00:00 10° NNE
Spot 1 4.2 18:53:23 28° ESE 18:55:02 43° ENE 18:58:58 10° N
Abrixas rocket 3.6 18:54:26 10° SSW 18:56:52 26° SSE 18:56:52 26° SSE
ALOS 2.4 18:52:57 10° S 18:57:37 75° WSW 19:02:19 10° NNW
Cosmos 2181 Rocket 4.3 18:51:47 10° NNW 18:58:00 72° W 19:04:18 10° S
Spot 2 Rocket 3.4 18:56:54 10° SSE 19:01:57 88° ENE 19:07:04 10° NNW
USA 229 DEB 3.9 18:55:51 10° NNW 19:02:53 60° NE 19:07:02 26° ESE
Cosmos 2333 Rocket 2.9 18:57:47 10° N 19:02:59 34° NE 19:04:11 31° E
USA 229 3.9 18:55:57 10° NNW 19:03:00 59° NE 19:07:06 27° ESE
Cosmos 2208 Rocket 4.0 18:59:20 10° NNW 19:04:48 80° ENE 19:09:51 12° SSE
Helios 1A 3.0 19:04:16 36° SE 19:05:40 54° ENE 19:09:45 10° N
Resurs 1-3 3.5 19:03:06 10° SSE 19:07:29 90° SSW 19:11:54 10° NNW
Cosmos 1980 4.5 19:05:52 10° N 19:10:53 31° NE 19:11:16 31° ENE
Cosmos 2074 Rocket 3.9 19:07:40 10° S 19:13:54 78° E 19:20:13 10° N
Cosmos 1850 Rocket 4.0 19:08:53 10° SSW 19:14:12 87° WNW 19:19:35 10° NNE
Cosmos 2184 Rocket 3.9 19:10:34 10° S 19:16:52 79° E 19:23:09 10° N
Helios 1B rocket 2.6 19:13:26 10° NNE 19:18:13 52° SE 19:21:39 10° S
Envisat 3.4 19:18:30 41° ENE 19:18:30 41° ENE 19:23:07 10° N
Intercosmos 24 4.4 19:17:18 10° S 19:21:32 90° E 19:27:42 10° N
Okean 2 3.2 19:17:51 10° N 19:22:00 70° E 19:22:00 70° E
USA 186 4.2 19:24:36 13° N 19:24:36 13° N 19:25:01 10° N
ERS-1 Rocket 4.3 19:25:25 24° NNE 19:25:25 24° NNE 19:28:01 10° N
SAR-Lupe-1 4.1 19:26:18 76° WNW 19:26:18 76° WNW 19:29:44 10° NNW
Okean 1 Rocket 4.3 19:22:02 10° SSW 19:26:19 44° WNW 19:30:38 10° N
Meteor 1-5 Rocket 4.3 19:21:07 10° S 19:27:06 88° E 19:33:03 10° N
Genesis I 3.9 19:23:19 10° NW 19:27:10 52° WSW 19:28:04 41° SSW
Cosmos 1892 Rocket 3.9 19:25:52 10° N 19:29:15 50° NNE 19:29:15 50° NNE
SAR-Lupe-4 4.1 19:30:26 49° SW 19:31:00 57° WSW 19:34:32 10° NNW
NOSS 3-1 (C) 4.3 19:27:57 10° NNW 19:35:08 49° NE 19:36:56 42° E
Nadezhda 3 Rocket 3.9 19:29:32 10° N 19:35:38 60° E 19:36:38 53° ESE
Gbstr 26 Del rocket 3.2 19:33:33 10° WSW 19:36:53 55° WNW 19:36:53 55° WNW
GEOS 3 Rocket 4.2 19:39:42 19° NNE 19:43:26 56° NW 19:48:33 10° SW
Cosmos 2285 Rocket 4.1 19:38:04 10° NNW 19:44:32 79° WSW 19:47:50 31° S
Cosmos 1025 Rocket 4.1 19:41:00 10° NNW 19:45:09 43° W 19:48:41 14° SSW
Cosmos 2154 Rocket 3.9 19:39:31 10° S 19:45:50 71° E 19:52:09 10° NNE
Cosmos 405 Rocket 4.0 19:42:27 10° NNW 19:45:01 37° NNW 19:45:01 37° NNW
Meteor 2-13 Rocket 4.4 19:45:43 10° S 19:51:47 83° W 19:57:55 10° N
COSMOS 2428 3.5 19:47:02 10° NW 19:52:30 49° WSW 19:55:38 24° S
Cosmos 2237 Rocket 2.5 19:51:10 10° NNW 19:55:53 54° NNE 19:55:53 54° NNE
NOSS 0 Rocket 3.8 20:02:10 10° NNW 20:08:21 81° WSW 20:08:24 81° SW
Cosmos 2219 Rocket 2.6 20:08:04 10° NNW 20:13:35 58° WSW 20:13:36 58° WSW
Cosmos 2219 4.4 20:08:47 10° SW 20:14:09 40° WNW 20:19:33 10° NNE
SL-16 R/B 3.8 20:24:47 10° NNW 20:27:20 26° N 20:27:20 26° N
Cosmos 2333 Rocket 3.6 20:41:59 10° NW 20:46:14 36° W 20:46:14 36° W
NOSS 3-1 (A) 4.5 20:59:11 10° NW 21:04:58 56° NW 21:04:58 56° NW
ATLAS 2AS CENTAUR R/B 4.1 21:05:09 10° NNW 21:10:18 36° N 21:10:18 36° N
